Regional Weather Roundup
Issued by NWS

Home | Current Version | Previous Version | Graphics & Text | Print | Product List | Glossary On
Versions: 1 2 3 4 5 6 7 8 9 10 11 12 13 14 15 16 17 18 19 20 21 22 23 24 25 26 27 28 29 30 31 32 33 34 35 36 37 38 39 40 41 42 43 44 45 46 47 48 49 50
052
ASUS43 KOAX 241410
RWRNE

WEATHER ROUNDUP FOR NEBRASKA
NATIONAL WEATHER SERVICE OMAHA NE
900 AM CDT TUE MAY 24 2016

NOTES: SATELLITE DATA IS BEING USED TO AUGMENT CLOUD COVER ABOVE
       12000 FEET.
       "FAIR" INDICATES FEW OR NO CLOUDS BELOW 12,000 FEET WITH NO
       SIGNIFICANT WEATHER AND/OR OBSTRUCTIONS TO VISIBILITY.

  * THESE STATIONS DO NOT REPORT WEATHER SUCH AS RAIN...SNOW OR FOG.

NEZ001>004-019>022-054>056-241500-
NEBRASKA PANHANDLE

CITY           SKY/WX    TMP DP  RH WIND       PRES   REMARKS
SCOTTSBLUFF    FAIR      51  44  77 CALM      29.94R
ALLIANCE       FAIR      52  46  80 NW5       29.93R
CHADRON        FAIR      55  42  61 NW5       29.92R
KIMBALL        PTSUNNY   56  45  65 SE5       29.97R
SIDNEY         FAIR      59  41  51 CALM      29.95S
$$

NEZ057>060-069>072-079>082-241500-
SOUTHWEST NEBRASKA

CITY           SKY/WX    TMP DP  RH WIND       PRES   REMARKS
NORTH PLATTE   FAIR      63  49  60 CALM      29.91R
IMPERIAL       CLOUDY    60  52  74 NW6       29.93R
LEXINGTON      FAIR      62  54  74 SE5       29.88R
MCCOOK         FAIR      67  58  72 S16G25    29.89R
OGALLALA       PTSUNNY   53  45  73 CALM      29.93S
$$

NEZ005>010-023>029-035>040-094-241500-
NORTH CENTRAL NEBRASKA

CITY           SKY/WX    TMP DP  RH WIND       PRES   REMARKS
VALENTINE      FAIR      58  46  64 S3        29.89S
AINSWORTH      FAIR      62  49  62 W3        29.90S
BROKEN BOW     FAIR      67  49  52 CALM      29.87S
O`NEILL        FAIR      62  51  67 SW3       29.88S
ORD            FAIR      60  53  77 N6        29.86F
THEDFORD       FAIR      61  51  70 CALM      29.91S
$$

NEZ041-046>049-061>064-073>077-083>087-241500-
SOUTH CENTRAL NEBRASKA

CITY           SKY/WX    TMP DP  RH WIND       PRES   REMARKS
GRAND ISLAND   FAIR      64  62  93 S7        29.88F
AURORA         FAIR      64  63  97 S8        29.88F
HASTINGS       FAIR      63  62  97 S6        29.90R
HEBRON         LGT RAIN  61  57  86 S3        29.89F
HOLDREGE       PTSUNNY   62  61  96 SE9G21    29.90S
KEARNEY *      FAIR      64  63  94 S8        29.89F
YORK           FAIR      63  59  88 SW9       29.88S
$$

NEZ011>018-030>034-042>045-241500-
NORTHEAST NEBRASKA

CITY           SKY/WX    TMP DP  RH WIND       PRES   REMARKS
NORFOLK        FAIR      62  59  90 S6        29.88S
ALBION         FAIR      63  59  88 CALM      29.87S FOG
BLAIR          FAIR      63  62  95 SE3       29.89S
FREMONT        FAIR      62  61  97 SE3       29.89S
TEKAMAH        FAIR      62  60  93 SE6       29.88F
WAYNE          FAIR      62  60  94 S7        29.87F
$$

NEZ050>053-065>068-078-088>093-241500-
SOUTHEAST NEBRASKA

CITY           SKY/WX    TMP DP  RH WIND       PRES   REMARKS
LINCOLN        LGT RAIN  63  61  93 VRB3      29.88F
OMAHA EPPLEY   CLOUDY    65  62  90 SE6       29.89F
BEATRICE       RAIN      61  58  89 E3        29.92F
FALLS CITY     FAIR      66  60  81 W12       29.94R
NEBRASKA CITY  FAIR      64  64 100 SW8       29.93R
PLATTSMOUTH    FAIR      66  65  97 S8        29.91R
$$

NEZ044-045-051>053-067-241500-
OMAHA AREA

CITY           SKY/WX    TMP DP  RH WIND       PRES   REMARKS
OMAHA EPPLEY   CLOUDY    65  62  90 SE6       29.89F
BLAIR          FAIR      63  62  95 SE3       29.89S
FREMONT        FAIR      62  61  97 SE3       29.89S
MILLARD        FAIR      65  63  93 SE5       29.89S
PLATTSMOUTH    FAIR      66  65  97 S8        29.91R
WAHOO          FAIR      61  60  95 SE5       29.88F
$$




USA.gov is the U.S. government's official web portal to all federal, state and local government web resources and services.